Location: Fenile
(46.0500°N, 9.5500°E)
Time: 13:55:50
(UTC+00:00)

Resurs 01 Rocket - Pass Details

Date: 03 March 2021
Orbit: 635 x 643 km, 98.0° (Epoch: 15 April)

Event Time Altitude Azimuth Distance (km) Brightness Sun altitude
Exits shadow 19:12:42 25° 32° (NNE) 1,283 3.0 -21.7°
Drops below altitude 10° 19:15:08 10° 6° (N) 2,034 4.3 -22.2°
Sets 19:17:31 0° 356° (N) 2,948 5.3 -22.6°
